Appleton, MN

9:14 AM CST on December 17, 2017 (GMT -0600)
Appleton Municipal

Weather History for KAQP - October, 2011

Change the Weather History Date:

Saturday, October 22, 2011

  Actual Average Record
Temperature  
Mean Temperature 45 °F -  
Max Temperature 62 °F 52 °F 71 °F (1998)
Min Temperature 28 °F 33 °F 17 °F (1997)
Degree Days  
Heating Degree Days 20    
Moisture  
Dew Point 35 °F    
Average Humidity 68    
Maximum Humidity 100    
Minimum Humidity 32    
Precipitation  
Precipitation 0.01 in - - ()
Sea Level Pressure  
Sea Level Pressure 30.04 in    
Wind  
Wind Speed 4 mph (SSW)    
Max Wind Speed 12 mph    
Max Gust Speed 16 mph    
Visibility 7 miles    
Events Fog , Rain , Thunderstorm    
Averages and records for this station are not official NWS values.
T = Trace of Precipitation, MM = Missing Value Source: NWS Daily Summary

Daily Weather History Graph

Daily Weather History Graph

Search for Another Location

Airport or City:

Trip Planner

Search our weather history database for the weather conditions in past years. The results will help you decide how hot, cold, wet, or windy it might be!

Date:

Astronomy

Oct. 22, 2011 Rise Set
Actual Time 7:48 AM CDT 6:27 PM CDT
Civil Twilight 7:18 AM CDT 6:57 PM CDT
Nautical Twilight 6:44 AM CDT 7:31 PM CDT
Astronomical Twilight 6:10 AM CDT 8:05 PM CDT
Moon 2:34 AM CDT (10/22) 3:56 PM CDT (10/22)
Length of Visible Light 11h 38m
Length of Day
10h 38m
Waning Crescent, 23% of the Moon is Illuminated
Oct 22
Waning Crescent
Oct 26
New
Nov 2
First Quarter
Nov 10
Full
Nov 18
Last Quarter

Hourly Weather History & Observations

Time (CDT) Temp. Windchill Dew Point Humidity Pressure Visibility Wind Dir Wind Speed Gust Speed Precip Events Conditions
12:14 AM 35.6 °F 30.7 °F 33.8 °F 93% 30.07 in 10.0 mi West 5.8 mph - N/A   Clear
12:34 AM 35.6 °F - 33.8 °F 93% 30.07 in 10.0 mi Calm Calm - N/A   Clear
12:54 AM 37.4 °F 33.8 °F 35.6 °F 93% 30.07 in 10.0 mi West 4.6 mph - N/A   Clear
1:14 AM 37.4 °F 34.9 °F 35.6 °F 93% 30.08 in 10.0 mi West 3.5 mph - N/A   Clear
1:35 AM 37.4 °F - 35.6 °F 93% 30.07 in 10.0 mi Calm Calm - N/A   Clear
2:14 AM 37.4 °F - 35.6 °F 93% 30.07 in 10.0 mi Calm Calm - N/A   Clear
2:34 AM 33.8 °F - 33.8 °F 100% 30.07 in 5.0 mi Calm Calm - N/A   Clear
2:54 AM 35.6 °F - 35.6 °F 100% 30.08 in 1.5 mi Calm Calm - N/A   Clear
3:15 AM 33.8 °F 30.8 °F 33.8 °F 100% 30.08 in 7.0 mi West 3.5 mph - N/A   Clear
4:15 AM 32.0 °F 28.7 °F 32.0 °F 100% 30.09 in 1.0 mi West 3.5 mph - N/A   Clear
4:34 AM 32.0 °F 27.5 °F 32.0 °F 100% 30.09 in 1.2 mi West 4.6 mph - N/A   Clear
4:55 AM 32.0 °F 27.5 °F 32.0 °F 100% 30.09 in 0.2 mi West 4.6 mph - N/A Fog Fog
5:14 AM 30.2 °F 24.3 °F 30.2 °F 100% 30.10 in 0.2 mi WSW 5.8 mph - N/A Fog Light Freezing Fog
5:34 AM 32.0 °F 27.5 °F 32.0 °F 100% 30.10 in 4.0 mi West 4.6 mph - N/A   Clear
5:54 AM 33.8 °F - 33.8 °F 100% 30.11 in 1.8 mi Calm Calm - N/A   Clear
6:15 AM 30.2 °F - 30.2 °F 100% 30.11 in 0.2 mi Calm Calm - N/A Fog Light Freezing Fog
6:34 AM 30.2 °F - 30.2 °F 100% 30.11 in 0.2 mi Calm Calm - N/A Fog Light Freezing Fog
7:15 AM 30.2 °F - 30.2 °F 100% 30.10 in 0.2 mi Calm Calm - N/A Fog Light Freezing Fog
7:34 AM 28.4 °F - 28.4 °F 100% 30.11 in 0.8 mi Calm Calm - N/A   Mostly Cloudy
7:55 AM 28.4 °F - 28.4 °F 100% 30.11 in 0.5 mi Calm Calm - N/A Fog Light Freezing Fog
8:14 AM 28.4 °F - 28.4 °F 100% 30.12 in 0.2 mi Calm Calm - N/A Fog Light Freezing Fog
8:35 AM 28.4 °F - 28.4 °F 100% 30.12 in 0.2 mi Calm Calm - N/A Fog Light Freezing Fog
8:55 AM 33.8 °F - 33.8 °F 100% 30.13 in 3.0 mi Calm Calm - N/A   Clear
9:15 AM 37.4 °F - 37.4 °F 100% 30.13 in 4.0 mi Calm Calm - N/A   Clear
9:34 AM 39.2 °F - 39.2 °F 100% 30.13 in 10.0 mi Calm Calm - N/A   Clear
9:54 AM 42.8 °F - 39.2 °F 87% 30.13 in 7.0 mi Calm Calm - N/A   Clear
10:14 AM 44.6 °F - 39.2 °F 81% 30.13 in 10.0 mi Calm Calm - N/A   Clear
10:34 AM 48.2 °F - 39.2 °F 71% 30.13 in 10.0 mi Calm Calm - N/A   Clear
11:14 AM 51.8 °F - 39.2 °F 62% 30.13 in 10.0 mi SSE 3.5 mph - N/A   Clear
11:35 AM 51.8 °F - 37.4 °F 58% 30.13 in 10.0 mi South 5.8 mph - N/A   Clear
11:54 AM 53.6 °F - 37.4 °F 54% 30.12 in 10.0 mi South 5.8 mph - N/A   Clear
12:14 PM 55.4 °F - 37.4 °F 51% 30.11 in 10.0 mi South 5.8 mph - N/A   Clear
12:34 PM 57.2 °F - 37.4 °F 48% 30.10 in 10.0 mi South 9.2 mph - N/A   Clear
12:54 PM 59.0 °F - 35.6 °F 42% 30.09 in 10.0 mi South 9.2 mph - N/A   Clear
1:14 PM 59.0 °F - 35.6 °F 42% 30.08 in 10.0 mi South 8.1 mph - N/A   Clear
1:34 PM 60.8 °F - 35.6 °F 39% 30.07 in 10.0 mi South 9.2 mph - N/A   Clear
1:54 PM 60.8 °F - 33.8 °F 36% 30.06 in 10.0 mi South 9.2 mph - N/A   Clear
2:14 PM 60.8 °F - 33.8 °F 36% 30.05 in 10.0 mi South 10.4 mph 16.1 mph N/A   Clear
2:34 PM 62.6 °F - 33.8 °F 34% 30.05 in 10.0 mi SSW 10.4 mph - N/A   Clear
2:54 PM 62.6 °F - 33.8 °F 34% 30.04 in 5.0 mi South 11.5 mph - N/A   Haze
3:14 PM 62.6 °F - 33.8 °F 34% 30.02 in 10.0 mi SSW 11.5 mph - N/A   Clear
3:35 PM 62.6 °F - 33.8 °F 34% 30.02 in 10.0 mi SSW 10.4 mph - N/A   Clear
3:55 PM 62.6 °F - 33.8 °F 34% 30.01 in 10.0 mi South 11.5 mph - N/A   Clear
4:14 PM 62.6 °F - 33.8 °F 34% 30.00 in 7.0 mi South 6.9 mph - N/A   Clear
4:34 PM 62.6 °F - 32.0 °F 32% 30.00 in 10.0 mi South 9.2 mph - N/A   Clear
4:55 PM 62.6 °F - 33.8 °F 34% 29.99 in 10.0 mi SSW 4.6 mph - N/A   Scattered Clouds
5:14 PM 62.6 °F - 33.8 °F 34% 29.99 in 3.0 mi SSW 5.8 mph - N/A   Haze
5:34 PM 62.6 °F - 33.8 °F 34% 29.98 in 3.0 mi SSW 4.6 mph - N/A   Haze
5:54 PM 62.6 °F - 35.6 °F 37% 29.97 in 10.0 mi South 4.6 mph - N/A   Mostly Cloudy
6:14 PM 59.0 °F - 35.6 °F 42% 29.97 in 7.0 mi South 4.6 mph - N/A   Scattered Clouds
6:35 PM 57.2 °F - 35.6 °F 44% 29.97 in 7.0 mi South 3.5 mph - N/A   Clear
6:54 PM 55.4 °F - 35.6 °F 47% 29.97 in 10.0 mi South 4.6 mph - N/A   Clear
7:15 PM 55.4 °F - 35.6 °F 47% 29.96 in 10.0 mi South 5.8 mph - N/A   Scattered Clouds
7:34 PM 55.4 °F - 35.6 °F 47% 29.95 in 10.0 mi South 5.8 mph - N/A   Scattered Clouds
7:54 PM 55.4 °F - 35.6 °F 47% 29.95 in 10.0 mi South 6.9 mph - N/A   Scattered Clouds
8:15 PM 55.4 °F - 35.6 °F 47% 29.95 in 10.0 mi South 6.9 mph - N/A   Scattered Clouds
8:35 PM 55.4 °F - 35.6 °F 47% 29.94 in 10.0 mi South 6.9 mph - N/A   Scattered Clouds
8:54 PM 53.6 °F - 35.6 °F 51% 29.94 in 10.0 mi SSW 8.1 mph - N/A   Scattered Clouds
9:14 PM 51.8 °F - 35.6 °F 54% 29.93 in 10.0 mi South 8.1 mph - N/A   Scattered Clouds
9:34 PM 53.6 °F - 37.4 °F 54% 29.93 in 10.0 mi South 8.1 mph - N/A   Scattered Clouds
9:55 PM 53.6 °F - 37.4 °F 54% 29.92 in 10.0 mi South 6.9 mph - N/A   Mostly Cloudy
10:34 PM 51.8 °F - 41.0 °F 67% 29.90 in 10.0 mi South 9.2 mph - N/A Rain Rain
10:55 PM 51.8 °F - 42.8 °F 71% 29.89 in 10.0 mi South 9.2 mph - 0.01 in Rain , Thunderstorm Light Thunderstorms and Rain
11:14 PM 50.0 °F - 42.8 °F 76% 29.88 in 10.0 mi South 8.1 mph - N/A   Scattered Clouds
11:34 PM 51.8 °F - 42.8 °F 71% 29.88 in 10.0 mi South 10.4 mph - N/A   Scattered Clouds
11:54 PM 51.8 °F - 42.8 °F 71% 29.87 in 10.0 mi South 9.2 mph - N/A Rain Light Rain